Probability
0 0 0 0 0 0 0 0 1 2 2 2 1 0 1 1 1 0 0 0 0 0 0 0 0 0 1 2 3 3 4 5 5 5 5 4 2 1 1 3 2 1 0 0
0 0 0 0 0 0 0 0 0 1 1 1 0 0 1 2 2 1 0 0 0 0 0 0 0 0 0 2 3 3 3 4 4 4 3 3 1 1 1 2 2 1 0 1
0 0 0 0 0 0 0 0 0 0 0 0 0 0 1 2 2 1 0 0 0 0 0 0 0 0 0 1 2 2 2 2 2 2 1 1 0 0 1 1 2 1 2 3
0 0 0 0 0 0 0 0 0 0 0 0 0 0 0 1 1 1 0 0 1 1 0 0 0 0 0 1 1 1 1 1 1 1 0 0 0 0 0 1 2 2 3 5
0 0 0 0 0 0 0 0 0 0 0 0 0 0 0 0 0 0 0 1 2 1 0 0 0 0 0 0 0 0 0 0 0 0 0 0 1 1 0 1 1 2 4 7
0 0 0 0 0 0 0 0 0 0 0 0 0 0 0 0 0 0 1 2 2 1 1 1 1 0 0 0 0 0 0 0 0 0 0 0 1 2 1 1 0 1 4 7
0 0 0 0 0 0 0 1 1 0 0 0 0 0 0 0 0 0 2 3 3 2 2 2 2 1 0 0 0 0 0 0 0 0 0 0 1 2 1 0 0 2 4 6
0 0 0 0 0 0 0 1 1 0 0 0 0 0 0 0 0 0 2 3 3 3 3 3 3 2 1 0 0 0 0 0 0 0 1 1 2 1 0 0 1 3 4 4
0 0 0 0 0 0 0 1 1 0 0 0 0 0 1 1 0 1 2 3 3 3 3 3 3 3 1 0 0 0 0 0 0 1 2 3 2 1 0 1 2 3 2 2
0 0 0 0 0 0 0 0 0 0 0 0 0 0 0 1 1 2 2 3 3 3 3 3 3 3 2 1 1 1 1 1 0 1 2 3 3 1 1 1 2 1 1 0
0 0 0 0 0 0 0 0 0 0 0 0 0 0 0 0 1 2 2 2 3 3 3 3 3 3 3 3 2 2 2 2 1 1 2 3 2 1 1 1 1 0 0 0
0 0 0 0 0 0 0 0 0 0 0 0 0 0 0 0 0 1 2 3 3 3 3 3 3 3 3 3 3 3 3 3 1 1 3 3 1 1 0 0 0 0 0 0
0 0 0 0 0 0 0 0 0 0 0 0 0 0 0 0 0 0 1 2 3 3 3 3 3 3 3 3 3 3 3 3 2 3 3 2 1 0 0 0 0 0 0 0
0 0 0 0 0 0 0 0 0 0 0 0 0 0 0 0 0 0 0 1 1 2 3 3 3 3 3 3 3 3 3 2 3 3 3 1 0 0 0 0 0 0 0 0
0 0 0 0 0 0 0 0 0 0 0 0 0 0 0 0 0 0 0 0 0 2 3 3 3 3 3 3 3 3 3 2 2 3 2 1 0 0 0 0 0 0 0 0
0 0 0 0 0 0 0 0 0 0 0 0 0 0 0 0 0 0 0 0 1 2 3 3 3 3 3 3 3 3 3 2 1 2 1 0 0 0 0 0 0 0 0 0
0 0 0 0 0 0 0 0 0 0 0 0 0 0 0 0 0 0 0 0 1 2 3 3 3 3 3 3 3 3 3 2 1 0 0 0 0 0 0 0 0 0 0 0
0 0 0 0 0 0 0 0 0 0 0 0 0 0 0 0 0 0 0 0 0 1 2 3 3 3 3 3 3 3 3 3 1 0 0 0 0 0 0 0 0 0 0 0
0 0 0 0 0 0 0 0 0 0 0 0 0 0 0 0 0 0 0 0 0 0 1 2 3 3 3 3 3 3 3 2 1 0 0 0 0 0 0 0 0 0 0 0
0 0 0 0 0 0 0 0 0 0 0 0 0 0 0 0 0 0 0 0 0 0 0 1 1 2 3 2 2 2 1 1 1 0 0 0 0 0 0 0 0 0 0 0
0 0 0 0 0 0 0 0 0 0 0 0 0 0 0 0 0 0 0 0 0 0 0 0 1 1 1 1 0 0 0 0 0 0 0 0 0 0 0 0 0 0 0 0
0 0 0 0 0 0 0 0 0 0 0 0 0 0 0 0 0 0 0 0 0 0 0 0 0 0 0 0 0 0 0 0 0 0 0 0 0 0 0 0 0 0 0 0
0 0 0 0 0 0 0 0 0 0 0 0 0 0 0 0 0 0 0 0 0 0 0 0 0 0 0 0 0 0 0 0 0 0 0 0 0 0 0 0 0 0 0 0
0 0 0 0 0 0 0 0 0 0 0 0 0 0 0 0 0 0 0 0 0 0 0 0 0 0 0 0 0 0 0 0 0 0 0 0 0 0 0 0 0 0 0 0
0 0 0 0 0 0 0 0 0 0 0 0 0 0 0 0 0 0 0 0 0 0 0 0 0 0 0 0 0 0 0 0 0 0 0 0 0 0 0 0 0 0 0 0
0 0 0 0 0 0 0 0 0 0 0 0 0 0 0 0 0 0 0 0 0 0 0 0 0 0 0 0 0 0 0 0 0 0 0 0 0 0 0 0 0 0 0 0
0 0 0 0 0 0 0 0 0 0 0 0 0 0 0 0 0 0 0 0 0 0 0 0 0 0 0 0 0 0 0 0 0 0 0 0 0 0 0 0 0 0 0 0
Wind_Speed
5 5 5 6 6 6 6 7 8 9 9 8 9 9 9 8 8 8 7 7 6 6 6 6 7 7 7 8 7 7 7 6 5 5 5 4 4 3 3 3 4 3 3 3
5 4 4 5 5 6 6 7 8 8 7 7 8 8 8 8 8 8 8 8 7 7 6 6 7 8 7 7 7 7 7 7 6 6 5 4 3 3 3 3 3 3 3 3
5 4 7 5 2 4 4 5 7 9 9 9 9 9 9 9 8 8 9 9 8 7 6 7 7 7 8 7 6 6 7 6 6 6 5 4 3 3 3 3 3 3 3 3
5 6 6 3 3 4 5 5 6 6 7 8 9 9 8 7 8 9 8 8 8 7 7 7 7 7 7 7 6 6 6 6 6 5 4 3 3 3 3 3 3 3 3 3
5 6 4 2 1 4 6 5 4 6 8 9 9 8 4 7 9 9 8 8 7 7 7 7 7 7 7 6 6 6 6 7 6 6 5 4 3 3 3 3 3 3 3 3
5 6 4 3 4 4 6 3 5 7 8 9 9 8 6 9 10 9 8 7 7 7 6 6 6 7 6 6 6 7 7 7 7 6 5 4 3 4 3 3 3 4 3 2
6 6 2 5 4 4 5 6 8 8 8 8 8 9 9 10 9 8 7 7 7 7 6 6 6 6 7 7 7 7 7 7 7 6 5 4 3 3 3 3 3 4 3 2
4 5 2 6 3 4 7 7 7 8 8 9 9 9 10 10 9 8 7 7 8 7 6 6 6 6 6 7 7 7 7 7 7 6 5 3 3 4 4 4 4 3 2 2
4 4 5 3 4 5 6 6 7 8 8 9 9 10 10 10 9 8 8 7 7 8 7 6 6 6 7 7 7 7 7 7 7 6 4 4 4 4 4 3 4 3 2 2
4 2 3 4 4 5 5 6 7 7 8 9 9 10 11 10 9 8 8 7 7 7 7 6 6 6 7 7 7 7 7 7 6 5 4 4 4 4 4 3 3 3 2 2
6 5 5 3 5 6 6 7 8 8 8 8 9 10 10 9 9 8 8 7 7 7 7 7 7 6 6 6 6 6 6 6 6 5 4 4 4 4 4 3 3 4 3 2
5 5 6 6 6 7 6 7 8 9 9 9 9 10 10 9 9 8 8 8 8 8 8 8 8 7 7 6 6 6 6 6 5 5 4 4 3 2 1 2 1 2 3 4
5 6 6 6 6 6 7 8 8 8 9 9 9 9 9 9 9 8 8 8 9 9 9 9 8 8 7 6 6 7 7 6 6 5 4 3 3 3 2 1 3 3 3 3
4 4 5 5 6 6 7 7 8 8 8 8 9 9 8 9 9 9 9 9 9 9 9 8 8 8 8 7 6 7 7 6 6 5 4 3 3 3 3 2 1 1 3 4
3 4 5 5 5 6 7 7 8 8 8 9 8 8 8 9 10 10 9 9 9 9 8 8 8 8 8 7 6 7 7 6 5 5 4 3 3 3 2 2 1 0 1 3
4 3 4 5 6 7 7 8 8 9 9 9 9 9 9 9 10 9 9 9 9 9 9 9 9 8 7 7 6 6 5 5 6 5 4 3 3 3 2 1 1 0 0 0
4 4 4 5 6 7 8 8 9 9 10 10 10 10 10 10 10 9 9 9 9 9 8 8 8 8 7 6 6 6 5 3 4 4 3 3 3 3 2 2 1 1 0 2
4 4 5 6 7 8 9 9 9 10 10 10 10 10 10 10 10 10 10 10 9 9 8 8 8 8 7 6 5 6 5 4 3 3 3 2 3 3 3 2 1 1 1 2
4 5 5 6 8 8 9 9 9 9 10 9 10 10 10 10 9 10 10 9 9 9 8 8 7 7 7 6 6 5 5 4 3 3 3 2 3 3 2 2 2 1 1 1
5 5 6 7 8 8 9 9 9 9 9 9 10 10 10 9 9 9 9 9 7 7 8 8 7 6 6 5 5 5 5 4 4 3 3 3 3 3 2 2 2 1 1 1
6 7 7 8 8 9 9 9 9 10 10 9 10 10 10 10 9 9 9 8 7 7 7 6 6 5 5 4 6 6 5 4 4 4 3 3 3 3 2 2 1 1 1 1
7 8 9 9 9 9 9 9 9 10 10 9 10 10 10 9 9 9 8 7 8 5 6 6 5 4 5 7 6 5 5 4 4 3 3 3 3 2 2 2 2 1 1 1
8 9 10 10 11 11 10 9 9 9 10 10 10 10 10 9 8 8 8 6 7 6 7 6 4 4 6 7 5 5 4 4 4 3 3 3 3 3 2 2 2 1 1 1
9 10 10 11 11 11 11 10 10 8 10 10 10 10 9 8 8 7 7 6 6 6 7 4 3 5 7 6 5 4 4 4 3 3 3 3 3 3 2 2 2 1 1 1
9 10 11 11 11 10 10 10 10 10 10 8 10 9 8 7 8 8 8 8 6 6 6 4 5 6 7 5 4 4 3 3 3 3 3 3 3 3 2 2 2 1 1 1
9 9 9 10 9 9 9 8 8 8 8 8 8 8 7 7 8 7 6 7 8 6 6 5 4 4 5 5 5 4 3 3 3 4 3 3 3 3 2 2 2 1 1 1
10 9 8 8 8 8 8 8 8 9 9 9 9 8 8 8 7 7 7 7 6 5 5 5 4 4 4 4 4 4 4 3 3 3 3 2 2 2 2 2 1 1 1 1
Wind_Direction
284 293 294 301 306 307 296 294 297 311 315 332 340 332 330 333 334 330 326 325 326 327 331 330 329 326 326 329 332 327 321 322 320 318 310 302 297 299 305 306 298 292 278 276
265 263 278 291 301 299 295 298 297 302 312 344 335 329 330 333 330 326 324 325 324 323 326 327 326 323 324 326 327 326 323 321 324 319 315 311 301 300 304 304 302 299 290 283
273 284 271 264 305 313 317 324 317 316 332 339 332 335 334 330 328 327 327 327 324 322 321 324 323 321 318 320 322 320 318 317 320 312 309 309 304 304 301 298 297 296 295 292
279 272 268 65 43 332 315 324 331 324 333 336 335 327 320 330 333 331 328 326 327 324 321 321 319 315 313 318 319 318 317 319 323 315 307 311 314 311 306 304 299 293 294 295
276 279 274 183 32 324 309 316 358 343 338 338 335 311 319 356 343 330 328 325 323 320 315 316 317 315 314 319 324 324 323 324 325 322 315 313 314 309 303 305 301 295 294 292
270 283 292 37 33 340 285 257 36 352 337 335 327 316 346 348 331 329 330 327 324 321 315 312 318 316 313 317 321 320 320 320 322 321 312 305 305 304 306 299 290 290 295 285
271 273 286 45 19 298 285 359 1 340 333 326 324 323 325 324 324 326 328 327 324 321 315 318 321 314 310 313 318 318 317 318 320 317 307 293 297 302 301 298 301 298 298 299
272 272 14 46 3 336 346 345 335 330 328 325 322 319 319 320 323 325 326 327 326 321 316 316 317 310 309 314 318 318 316 313 316 315 306 302 293 290 290 291 284 278 278 286
315 347 29 11 345 347 337 328 330 327 327 323 320 320 321 322 325 324 321 323 321 319 315 314 313 310 308 312 314 312 311 314 316 312 304 297 287 282 277 278 286 292 289 300
276 281 321 325 333 333 330 327 327 326 322 320 318 320 323 325 324 322 323 320 316 315 314 313 314 310 306 307 313 312 313 312 308 302 298 297 289 290 294 301 299 297 306 313
262 286 294 313 332 331 332 329 327 327 325 322 319 321 325 325 325 323 321 318 314 312 311 309 309 308 308 308 308 307 306 307 306 303 303 297 293 302 298 306 318 304 311 310
292 320 306 313 320 324 322 322 323 323 324 323 322 322 323 323 322 318 316 315 312 310 310 310 311 312 312 309 304 298 297 300 301 301 299 291 288 285 310 286 254 258 289 302
295 308 304 307 312 315 312 314 314 314 316 318 321 318 319 317 316 317 315 314 313 311 309 310 311 311 314 313 307 299 299 301 301 302 300 292 288 288 285 214 204 219 226 231
283 288 291 306 312 316 316 316 315 314 317 316 315 315 317 315 315 316 315 314 312 309 309 310 310 311 313 310 303 297 293 289 287 292 291 291 295 291 286 287 245 180 185 192
282 285 293 305 310 316 318 317 316 317 319 319 318 317 318 316 316 316 315 313 312 310 311 311 309 311 313 308 301 296 297 298 299 299 291 297 296 295 297 288 300 327 156 159
289 283 288 302 312 316 317 317 315 317 321 321 320 317 315 312 311 313 314 314 312 311 315 312 308 307 307 303 295 287 283 289 289 289 291 294 295 301 304 289 275 313 326 33
278 287 301 308 310 312 314 313 312 313 314 315 316 314 311 310 310 312 314 315 311 308 311 312 309 307 303 300 294 289 288 281 262 275 286 299 302 308 309 299 293 291 11 52
294 298 298 298 301 303 306 309 309 308 308 312 313 311 310 310 312 311 311 311 308 308 311 312 315 308 301 298 295 292 287 289 293 300 302 300 302 300 297 294 281 273 269 142
323 319 314 310 308 308 310 312 311 310 310 310 309 309 306 306 307 306 307 307 305 305 311 315 313 300 299 297 293 278 282 283 283 284 288 278 272 278 284 284 288 290 282 282
329 329 326 318 313 312 311 311 311 310 311 310 307 306 304 305 306 305 302 297 299 307 310 313 308 301 295 292 290 281 279 280 281 278 279 279 281 284 281 284 292 297 295 298
321 318 314 315 317 316 315 312 309 309 310 307 304 303 305 307 305 302 298 297 304 306 302 294 289 296 297 308 278 274 271 274 273 270 275 281 286 286 288 285 282 279 278 279
318 314 312 313 315 316 314 309 306 306 308 305 302 303 305 304 300 295 289 290 300 311 299 295 296 318 319 301 277 274 273 273 272 273 276 278 277 277 277 273 267 261 246 248
313 311 309 308 308 307 305 303 303 305 308 306 303 303 302 302 299 295 295 297 300 314 298 297 324 320 302 283 277 274 274 273 271 269 268 264 258 257 260 258 259 258 251 240
305 306 307 306 303 298 298 301 304 306 305 300 296 296 295 292 287 284 289 290 281 287 289 301 286 279 273 271 273 273 271 270 270 272 272 267 258 248 247 248 244 233 218 229
300 303 303 303 300 298 298 298 298 298 298 300 299 298 292 288 291 298 301 303 302 282 284 272 243 250 259 270 274 275 279 293 300 295 278 270 267 260 249 243 240 222 183 186
288 288 293 294 295 295 296 297 296 297 298 298 299 301 301 297 294 291 288 290 289 282 282 282 267 252 265 272 270 268 267 256 253 257 265 267 262 266 268 259 240 223 195 189
275 274 273 278 281 283 288 293 296 296 297 299 302 303 302 300 296 296 296 293 287 277 278 281 277 265 261 263 264 259 254 253 259 268 259 254 260 260 255 247 235 213 201 183